Location: Newark
(41.1192°N, 81.5292°W)
Time: 10:11:08
(UTC+00:00)

N. Korean satellite - Pass Details

Date: 22 November 2019
Orbit: 456 x 506 km, 97.2° (Epoch: 09 December)

Event Time Altitude Azimuth Distance (km) Brightness Sun altitude
Rises 11:08:47 0° 14° (NNE) 2,607 10.3 -13.7°
Reaches altitude 10° 11:10:54 10° 18° (NNE) 1,712 9.4 -13.3°
Maximum altitude 11:14:34 64° 101° (E) 550 7.1 -12.6°
Drops below altitude 10° 11:18:09 10° 183° (S) 1,672 9.5 -12.0°
Sets 11:20:12 0° 186° (S) 2,539 10.4 -11.6°
